Simultaneous Nadir Overpasses (SNOs) Predictions

Prediction of SNOs between GOES-15 and METOP-B Satellite Orbit:

Table of predicted SNOs for the next 14.0 days since TLE Epoch: 7/16/2022
Index Date Time (GOES-15) GOES-15 Lat,Lon METOP-B Lat,Lon Distance(km) Time Diff (sec)
1 07/16/2022 06:19:23 0.11,-128.35 -0.71,-131.90 405.00 80
2 07/17/2022 05:56:05 0.15,-128.33 0.47,-126.92 161.73 80
3 07/18/2022 18:17:35 -0.11,-128.36 0.62,-131.46 354.42 80
4 07/19/2022 17:54:17 -0.14,-128.35 -0.56,-126.48 212.66 80
5 07/21/2022 06:15:55 0.09,-128.28 -0.55,-131.06 317.20 80
6 07/22/2022 05:52:36 0.12,-128.26 0.63,-126.08 249.27 80
7 07/23/2022 18:14:07 -0.08,-128.27 0.45,-130.62 267.85 80
8 07/24/2022 17:50:47 -0.11,-128.26 -0.67,-125.63 298.57 80
9 07/26/2022 06:12:26 0.07,-128.18 -0.37,-130.22 231.98 80
10 07/27/2022 05:49:07 0.10,-128.16 0.76,-125.23 333.69 80
11 07/28/2022 18:10:37 -0.06,-128.16 0.32,-129.77 184.69 80
12 07/29/2022 17:47:19 -0.09,-128.13 -0.87,-124.80 381.14 80
